Other Surface Observations
Issued by NWS

Home | Current Version | Previous Version | Text Only | Print | Product List | Glossary On
Versions: 1 2 3 4 5 6 7 8 9 10 11 12 13 14 15 16 17 18 19 20 21 22 23 24 25 26 27 28 29 30 31 32 33 34 35 36 37 38 39 40 41 42 43 44 45 46 47 48 49 50
000
SXUS52 KTAE 032319
OSOTAE
OSOTAE
North Florida/South Alabama/Southwest Georgia Weather Roundup
National Weather Service Tallahassee Florida
700 PM EDT MON AUG 03 2015

Note: "fair" indicates few or no clouds below 12,000 feet with no
significant weather and/or obstructions to visibility.

!FLZ017-115-028-034-025-040000
...North Florida...

CITY           SKY/WX    TMP DP  RH WIND       PRES   REMARKS
TALLAHASSEE    PTSUNNY   88  74  63 S10       29.88R HX  96
APALACHICOLA   MOSUNNY   90  76  63 W21       29.88S HX 101
PERRY          CLOUDY    76  76 100 SW3       29.88S
CROSS CITY       N/A     83  80  91 W7        29.88R HX  95
JACKSONVILLE   PTSUNNY   81  79  94 S6        29.85F HX  90
$$

!FLZ112-006-005-002-011-040000
...Florida Panhandle...

CITY           SKY/WX    TMP DP  RH WIND       PRES   REMARKS
MARIANNA       MOSUNNY   89  72  56 E6        29.85S HX  96
BONIFAY        NOT AVBL
PANAMA CITY NW FAIR      89  76  65 SW16      29.85F HX 100
TYNDALL AFB    SUNNY     88  78  74 W16       29.87S HX 101
TYND DRONE APT FAIR      86  79  78 W12G18    29.87S HX  99
DE FUNIAK SPR  FAIR      89  71  54 S8        29.88S HX  94
EGLIN AFB      MOSUNNY   89  76  65 SW13      29.87F HX  99
DESTIN         SUNNY     89  77  67 SW9G18    29.88S HX 101
HURLBURT       MOSUNNY   89  75  63 SW14G21   29.87F HX  98
CRESTVIEW      SUNNY     92  70  48 SW12      29.88F HX  97
PENSACOLA      SUNNY     89  73  59 W15       29.87F HX  97
$$

!ALZ063-066-040000
...South Alabama...

CITY           SKY/WX    TMP DP  RH WIND       PRES   REMARKS
DOTHAN         SUNNY     93  66  40 SE3       29.90S HX  96
OZARK CAIRNS   SUNNY     95  65  36 W7        29.86F HX  97
FT RUCKER HELI SUNNY     95  60  31 W5        29.85F HX  95
RUCKER HELI 3  FAIR      94  62  34 SW6       29.88F HX  94
RUCKER HELI 2  FAIR      95  62  33 VRB3      29.85F HX  96
FLORALA APT    SUNNY     93  67  42 CALM      29.88F HX  96
ANDALUSIA      MOSUNNY  100  62  28 CALM      29.86F HX 101
TROY           SUNNY     92  67  43 N5        29.88S HX  95
EUFALA         FAIR      95  70  44 CALM      29.86S HX 101
MOBILE         MOSUNNY   88  73  61 SW12      29.89F HX  95
$$

!GAZ120>161-040000
...Southwest and South Central Georgia...

CITY           SKY/WX    TMP DP  RH WIND       PRES   REMARKS
THOMASVILLE    FAIR      91  72  52 N8        29.87F HX  98
BAINBRIDGE     MOSUNNY   95  73  49 E5        29.86F HX 105
MOODY AFB      MOSUNNY   85  75  70 N9        29.86R HX  94
VALDOSTA       PTSUNNY   87  77  72 E6        29.87R HX  99
MOULTRIE       SUNNY     91  72  52 NW3       29.87F HX  98
BLAKELY        MOSUNNY   95  75  52 CALM      29.87S HX 107
ALBANY         SUNNY     93  70  46 N5        29.88S HX  99
TIFTON         FAIR      89  71  56 N5        29.87R HX  95
FITZGERALD     FAIR      91  73  54 N7        29.89S HX  99
CORDELE        FAIR      93  73  52 N3        29.88S HX 102
AMERICUS       FAIR      91  66  43 CALM      29.90R HX  94
HOMERVILLE     FAIR      88  79  74 NW7       29.87R HX 102
$$

!GMZ750-755-770-775-040000
...Coastal and Buoy Obs...

STATION/POSITION TIME  TEMP    WIND        PRES    VSBY  WAVE
                       AIR SEA DIR/SP/G                  HT/PER
                 (UTC) (F)     (DEG/KT/KT) (MB)    (MI)  (FT/S)
KEATON BEACH     2300   76      20/  6/  7 1012.1R
CEDAR KEY        2300   83     250/ 11/ 14 1012.9R
C TOWER          2300   84     250/ 24/ 26 1012.1R
APALACHICOLA BUO 2250   84 84  270/ 16/ 19 1012.6R         4/ 5
PANAMA CITY BUOY 2250   84 87  280/ 17/ 21 1012.9F         4/ 6
MOBILE BUOY      2250   83 87  270/ 17/ 21 1013.0F         4/ 6
ORANGE BCH AL BU 2250   86 88  240/ 14/ 16 1011.3F         2/ 4
$$



USA.gov is the U.S. government's official web portal to all federal, state and local government web resources and services.